Showing default

INNOCUBE (TUSAT-31), 62616

Orbit data source: Space-Track

INNOCUBE (TUSAT-31), 62616 is a payload satellite owned by TUB (DE) in SSO that was launched on Tue, 14 Jan 2025 UTC via an FALCON 9 launch vehicle from the Air Force Western Test Range (AFWTR). Payload-class satellites include a variety of spacecraft equipped with specific instruments for various scientific and technological missions. These include communications satellites like Starlink; space stations such as the ISS; scientific satellites like the Hubble; Earth observation satellites from companies like Planet Labs, Umbra, and HawkEye 360; GPS; miniature CubeSats for education and research; and military/defense satellites.

Loading next visibility...
Identifier
62616, 2025-009H
Orbit
SSO
Country
Flag of DEDE / GER
Related business
Manufacturer
TUB
Mission
Operational Amateur Technology
Bus & Motor
CUBESAT 3U, Unknown motor
Mass
~4 kg wet, ~4 kg dry
Launch date (UTC)
2025-01-14 (1 year ago)
Launch vehicle
FALCON 9
Launch site
Air Force Western Test Range (AFWTR)
Object type
Payload
Rocket body
Debris
Shape & HBR
Box, 0.1 m
Radar Cross Section
0.035 m², Small (<0.1 m²)

Expand to show TLE details & history
Last TLE update: 21 hours ago

TLE from 21 hours ago
0 INNOCUBE (TUSAT-31)
1 62616U 25009H   26034.20606706  .00009936  00000-0  40932-3 0  9997
2 62616  97.4014 115.7599 0007536  87.0367 273.1733 15.24272117 58390
Epoch: 2026-02-03T04:56Z
TLE epoch observation values (Epoch: 2026-02-03T04:56:44.193Z)
Latitude
-0.00003°
Longitude
-91.81456°
Altitude
495.785 km
Speed
7.617 km/s
True Right ascension
07h 43m 02s
True Declination
0° 00' 00"
Sunlit
Object was in full shadow at epoch
Visualization orbit readout
Latitude
Unknown
Longitude
Unknown
Altitude
Unknown
Speed
Unknown
Apparent Right ascension
Unknown
Apparent Declination
Unknown
Sunlit
N/A
Visualization observer readout
Local Sidereal Time
04:13:05
Azimuth
Unknown
Elevation
Unknown
Doppler factor
Unknown
Orbital elements
Apogee altitude
495.108 km
Perigee altitude
484.756 km
Semi-major axis
6,868.069 km
Eccentricity
0.00075
Inclination
97.4014°
RAAN
115.7599°
Arg. of periapsis
87.0367°
True anomaly
273.08707°
Mean anomaly
273.1733°
Eccentric anomaly
273.13019°
Mean motion
3.81321 °/min
Orbital period
94.41 mins
BSTAR
0.00040932
Loading maneuver chart data...
Computing Atmospheric mass density...
Loading historical data...
Loading historical data...
Loading historical data...
Loading historical data...
Loading historical data...
Loading historical data...
Loading historical data...

Documentation

Showing up to 5 results
|